Time,TemperatureF,DewpointF,PressureIn,WindDirection,WindDirectionDegrees,WindSpeedMPH,WindSpeedGustMPH,Humidity,HourlyPrecipIn,Conditions,Clouds,dailyrainin,SoftwareType,DateUTC
2013-10-03 00:14:00,52.3,50.0,30.16,NE,35,0.0,0.0,91,0.00,,,0.00,weatherlink.com 1.10,2013-10-03 04:14:00,
2013-10-03 00:29:00,52.2,50.0,30.15,NE,35,0.0,0.0,92,0.00,,,0.00,weatherlink.com 1.10,2013-10-03 04:29:00,
2013-10-03 00:44:00,52.1,50.0,30.15,NE,35,0.0,0.0,92,0.00,,,0.00,weatherlink.com 1.10,2013-10-03 04:44:00,
2013-10-03 00:59:00,52.0,50.0,30.15,NE,35,0.0,0.0,92,0.00,,,0.00,weatherlink.com 1.10,2013-10-03 04:59:00,
2013-10-03 01:14:00,52.0,50.0,30.15,NE,35,0.0,0.0,93,0.00,,,0.00,weatherlink.com 1.10,2013-10-03 05:14:00,
2013-10-03 01:29:00,52.1,50.0,30.15,NE,35,0.0,0.0,93,0.00,,,0.00,weatherlink.com 1.10,2013-10-03 05:29:00,
2013-10-03 01:44:00,52.1,50.0,30.15,NE,35,0.0,1.0,93,0.00,,,0.00,weatherlink.com 1.10,2013-10-03 05:44:00,
2013-10-03 02:01:00,52.1,50.0,30.15,NE,35,0.0,0.0,93,0.00,,,0.00,weatherlink.com 1.10,2013-10-03 06:01:00,
2013-10-03 02:14:00,51.9,50.0,30.15,NE,35,0.0,0.0,93,0.00,,,0.00,weatherlink.com 1.10,2013-10-03 06:14:00,
2013-10-03 02:29:00,51.8,50.0,30.15,NE,35,0.0,0.0,93,0.00,,,0.00,weatherlink.com 1.10,2013-10-03 06:29:00,
2013-10-03 02:44:00,51.8,50.0,30.15,NE,35,0.0,0.0,93,0.00,,,0.00,weatherlink.com 1.10,2013-10-03 06:44:00,
2013-10-03 02:59:00,51.9,50.0,30.14,NE,35,0.0,0.0,93,0.00,,,0.00,weatherlink.com 1.10,2013-10-03 06:59:00,
2013-10-03 03:14:00,51.9,50.0,30.13,NE,35,0.0,0.0,93,0.00,,,0.00,weatherlink.com 1.10,2013-10-03 07:14:00,
2013-10-03 03:29:00,51.8,50.0,30.13,NE,35,0.0,0.0,93,0.00,,,0.00,weatherlink.com 1.10,2013-10-03 07:29:00,
2013-10-03 03:44:00,51.6,50.0,30.12,NE,35,0.0,0.0,93,0.00,,,0.00,weatherlink.com 1.10,2013-10-03 07:44:00,
2013-10-03 03:59:00,51.5,50.0,30.13,NE,35,0.0,0.0,93,0.00,,,0.00,weatherlink.com 1.10,2013-10-03 07:59:00,
2013-10-03 04:14:00,51.5,50.0,30.13,NE,35,0.0,0.0,93,0.00,,,0.00,weatherlink.com 1.10,2013-10-03 08:14:00,
2013-10-03 04:29:00,51.4,50.0,30.13,NE,35,0.0,1.0,93,0.00,,,0.00,weatherlink.com 1.10,2013-10-03 08:29:00,
2013-10-03 04:44:00,51.3,49.0,30.13,NE,35,0.0,0.0,93,0.00,,,0.00,weatherlink.com 1.10,2013-10-03 08:44:00,
2013-10-03 04:59:00,51.2,49.0,30.13,NE,35,0.0,0.0,93,0.00,,,0.00,weatherlink.com 1.10,2013-10-03 08:59:00,
2013-10-03 05:14:00,51.0,49.0,30.13,NE,35,0.0,0.0,93,0.00,,,0.00,weatherlink.com 1.10,2013-10-03 09:14:00,
2013-10-03 05:29:00,51.0,49.0,30.13,NE,35,0.0,0.0,93,0.00,,,0.00,weatherlink.com 1.10,2013-10-03 09:29:00,
2013-10-03 05:44:00,50.9,49.0,30.13,NE,35,0.0,0.0,93,0.00,,,0.00,weatherlink.com 1.10,2013-10-03 09:44:00,
2013-10-03 05:59:00,50.8,49.0,30.14,NE,35,0.0,0.0,94,0.00,,,0.00,weatherlink.com 1.10,2013-10-03 09:59:00,
2013-10-03 06:14:00,50.8,49.0,30.14,NE,35,0.0,0.0,94,0.00,,,0.00,weatherlink.com 1.10,2013-10-03 10:14:00,
2013-10-03 06:29:00,50.8,49.0,30.14,NE,35,0.0,0.0,94,0.00,,,0.00,weatherlink.com 1.10,2013-10-03 10:29:00,
2013-10-03 06:44:00,50.6,49.0,30.14,NE,35,0.0,1.0,93,0.00,,,0.00,weatherlink.com 1.10,2013-10-03 10:44:00,
2013-10-03 06:59:00,50.6,49.0,30.14,NE,35,0.0,1.0,94,0.00,,,0.00,weatherlink.com 1.10,2013-10-03 10:59:00,
2013-10-03 07:14:00,50.5,49.0,30.14,NE,35,0.0,0.0,94,0.00,,,0.00,weatherlink.com 1.10,2013-10-03 11:14:00,
2013-10-03 07:29:00,50.6,49.0,30.14,NE,35,0.0,0.0,94,0.00,,,0.00,weatherlink.com 1.10,2013-10-03 11:29:00,
2013-10-03 07:44:00,50.7,49.0,30.14,NE,35,0.0,0.0,94,0.00,,,0.00,weatherlink.com 1.10,2013-10-03 11:44:00,
2013-10-03 07:59:00,50.8,49.0,30.14,NE,35,0.0,0.0,94,0.00,,,0.00,weatherlink.com 1.10,2013-10-03 11:59:00,
2013-10-03 08:14:00,51.2,50.0,30.15,NE,35,0.0,0.0,94,0.00,,,0.00,weatherlink.com 1.10,2013-10-03 12:14:00,
2013-10-03 08:29:00,51.7,50.0,30.15,NE,35,0.0,0.0,94,0.00,,,0.00,weatherlink.com 1.10,2013-10-03 12:29:00,
2013-10-03 08:44:00,52.2,51.0,30.15,NE,35,0.0,0.0,94,0.00,,,0.00,weatherlink.com 1.10,2013-10-03 12:44:00,
2013-10-03 08:59:00,52.9,51.0,30.16,NE,35,0.0,0.0,94,0.00,,,0.00,weatherlink.com 1.10,2013-10-03 12:59:00,
2013-10-03 09:14:00,54.2,53.0,30.16,NE,35,0.0,0.0,95,0.00,,,0.00,weatherlink.com 1.10,2013-10-03 13:14:00,
2013-10-03 09:29:00,55.5,54.0,30.16,NE,35,0.0,0.0,94,0.00,,,0.00,weatherlink.com 1.10,2013-10-03 13:29:00,
2013-10-03 09:44:00,57.8,55.0,30.16,NE,35,0.0,0.0,91,0.00,,,0.00,weatherlink.com 1.10,2013-10-03 13:44:00,
2013-10-03 09:59:00,59.8,56.0,30.15,NE,35,0.0,0.0,87,0.00,,,0.00,weatherlink.com 1.10,2013-10-03 13:59:00,
2013-10-03 10:14:00,60.9,57.0,30.15,NE,35,0.0,0.0,86,0.00,,,0.00,weatherlink.com 1.10,2013-10-03 14:14:00,
2013-10-03 10:30:00,61.7,57.0,30.15,NE,35,0.0,0.0,85,0.00,,,0.00,weatherlink.com 1.10,2013-10-03 14:30:00,
2013-10-03 10:45:00,62.5,58.0,30.15,NE,35,0.0,0.0,84,0.00,,,0.00,weatherlink.com 1.10,2013-10-03 14:45:00,
2013-10-03 11:00:00,63.2,58.0,30.14,NE,35,0.0,0.0,82,0.00,,,0.00,weatherlink.com 1.10,2013-10-03 15:00:00,
2013-10-03 11:15:00,63.5,58.0,30.15,NE,35,0.0,0.0,83,0.00,,,0.00,weatherlink.com 1.10,2013-10-03 15:15:00,
2013-10-03 11:30:00,64.1,59.0,30.14,NE,35,0.0,0.0,82,0.00,,,0.00,weatherlink.com 1.10,2013-10-03 15:30:00,
2013-10-03 11:45:00,65.9,60.0,30.14,NE,35,0.0,0.0,80,0.00,,,0.00,weatherlink.com 1.10,2013-10-03 15:45:00,
2013-10-03 12:00:00,67.9,61.0,30.13,NNE,16,1.0,2.0,78,0.00,,,0.00,weatherlink.com 1.10,2013-10-03 16:00:00,
2013-10-03 12:15:00,71.0,60.0,30.12,ENE,57,1.0,3.0,69,0.00,,,0.00,weatherlink.com 1.10,2013-10-03 16:15:00,
2013-10-03 12:30:00,72.4,59.0,30.12,ENE,69,0.0,2.0,64,0.00,,,0.00,weatherlink.com 1.10,2013-10-03 16:30:00,
2013-10-03 12:45:00,73.7,60.0,30.12,East,91,1.0,5.0,63,0.00,,,0.00,weatherlink.com 1.10,2013-10-03 16:45:00,
2013-10-03 13:02:00,74.2,60.0,30.11,East,88,3.0,3.0,62,0.00,,,0.00,weatherlink.com 1.10,2013-10-03 17:02:00,
2013-10-03 13:15:00,75.9,59.0,30.11,WSW,248,3.0,6.0,57,0.00,,,0.00,weatherlink.com 1.10,2013-10-03 17:15:00,
2013-10-03 13:30:00,73.7,59.0,30.10,West,271,0.0,3.0,61,0.00,,,0.00,weatherlink.com 1.10,2013-10-03 17:30:00,
2013-10-03 13:45:00,73.2,61.0,30.10,West,271,1.0,1.0,65,0.00,,,0.00,weatherlink.com 1.10,2013-10-03 17:45:00,
2013-10-03 14:00:00,73.3,60.0,30.09,West,271,0.0,1.0,64,0.00,,,0.00,weatherlink.com 1.10,2013-10-03 18:00:00,
2013-10-03 14:15:00,74.0,61.0,30.09,West,270,0.0,2.0,63,0.00,,,0.00,weatherlink.com 1.10,2013-10-03 18:15:00,
2013-10-03 14:30:00,74.2,61.0,30.08,West,270,0.0,2.0,63,0.00,,,0.00,weatherlink.com 1.10,2013-10-03 18:30:00,
2013-10-03 14:45:00,74.8,61.0,30.08,ENE,67,0.0,4.0,62,0.00,,,0.00,weatherlink.com 1.10,2013-10-03 18:45:00,
2013-10-03 15:00:00,74.1,62.0,30.08,ENE,67,0.0,1.0,65,0.00,,,0.00,weatherlink.com 1.10,2013-10-03 19:00:00,
2013-10-03 15:15:00,73.2,61.0,30.08,South,186,0.0,1.0,66,0.00,,,0.00,weatherlink.com 1.10,2013-10-03 19:15:00,
2013-10-03 15:30:00,72.4,62.0,30.08,SW,236,0.0,3.0,69,0.00,,,0.00,weatherlink.com 1.10,2013-10-03 19:30:00,
2013-10-03 15:45:00,71.7,61.0,30.08,SW,236,0.0,2.0,68,0.00,,,0.00,weatherlink.com 1.10,2013-10-03 19:45:00,
2013-10-03 16:00:00,71.2,61.0,30.07,SW,236,0.0,1.0,70,0.00,,,0.00,weatherlink.com 1.10,2013-10-03 20:00:00,
2013-10-03 16:15:00,71.2,62.0,30.07,SW,236,0.0,1.0,73,0.00,,,0.00,weatherlink.com 1.10,2013-10-03 20:15:00,
2013-10-03 16:30:00,70.6,62.0,30.07,SW,236,0.0,1.0,73,0.00,,,0.00,weatherlink.com 1.10,2013-10-03 20:30:00,
2013-10-03 16:47:00,70.8,63.0,30.07,East,88,2.0,3.0,75,0.00,,,0.00,weatherlink.com 1.10,2013-10-03 20:47:00,
2013-10-03 17:00:00,70.5,61.0,30.07,East,87,0.0,5.0,73,0.00,,,0.00,weatherlink.com 1.10,2013-10-03 21:00:00,
2013-10-03 17:15:00,70.2,62.0,30.07,East,87,0.0,1.0,75,0.00,,,0.00,weatherlink.com 1.10,2013-10-03 21:15:00,
2013-10-03 17:30:00,70.0,62.0,30.07,East,87,0.0,1.0,76,0.00,,,0.00,weatherlink.com 1.10,2013-10-03 21:30:00,
2013-10-03 17:45:00,69.9,62.0,30.07,East,87,0.0,1.0,77,0.00,,,0.00,weatherlink.com 1.10,2013-10-03 21:45:00,
2013-10-03 18:00:00,68.9,63.0,30.08,East,87,0.0,1.0,80,0.00,,,0.00,weatherlink.com 1.10,2013-10-03 22:00:00,
2013-10-03 18:15:00,68.5,62.0,30.08,East,87,0.0,1.0,80,0.00,,,0.00,weatherlink.com 1.10,2013-10-03 22:15:00,
2013-10-03 18:30:00,68.0,62.0,30.08,East,87,0.0,0.0,82,0.00,,,0.00,weatherlink.com 1.10,2013-10-03 22:30:00,
2013-10-03 18:45:00,67.0,62.0,30.08,East,87,0.0,2.0,83,0.00,,,0.00,weatherlink.com 1.10,2013-10-03 22:45:00,
2013-10-03 19:00:00,66.3,62.0,30.08,East,87,0.0,1.0,85,0.00,,,0.00,weatherlink.com 1.10,2013-10-03 23:00:00,
2013-10-03 19:15:00,65.9,61.0,30.09,East,87,0.0,0.0,85,0.00,,,0.00,weatherlink.com 1.10,2013-10-03 23:15:00,
2013-10-03 19:30:00,65.5,61.0,30.09,East,87,0.0,1.0,86,0.00,,,0.00,weatherlink.com 1.10,2013-10-03 23:30:00,
2013-10-03 19:46:00,64.9,61.0,30.09,East,87,0.0,2.0,87,0.00,,,0.00,weatherlink.com 1.10,2013-10-03 23:46:00,
2013-10-03 20:01:00,64.2,60.0,30.09,East,87,0.0,1.0,87,0.00,,,0.00,weatherlink.com 1.10,2013-10-04 00:01:00,
2013-10-03 20:16:00,63.4,60.0,30.10,East,87,0.0,1.0,88,0.00,,,0.00,weatherlink.com 1.10,2013-10-04 00:16:00,
2013-10-03 20:33:00,62.5,59.0,30.10,East,87,0.0,1.0,89,0.00,,,0.00,weatherlink.com 1.10,2013-10-04 00:33:00,
2013-10-03 20:46:00,61.8,59.0,30.11,East,88,0.0,2.0,89,0.00,,,0.00,weatherlink.com 1.10,2013-10-04 00:46:00,
2013-10-03 21:01:00,61.2,58.0,30.11,East,88,0.0,0.0,90,0.00,,,0.00,weatherlink.com 1.10,2013-10-04 01:01:00,
2013-10-03 21:16:00,60.5,58.0,30.11,East,88,0.0,1.0,90,0.00,,,0.00,weatherlink.com 1.10,2013-10-04 01:16:00,
2013-10-03 21:31:00,59.9,57.0,30.11,East,88,0.0,1.0,91,0.00,,,0.00,weatherlink.com 1.10,2013-10-04 01:31:00,
2013-10-03 21:46:00,59.3,57.0,30.11,East,88,0.0,2.0,91,0.00,,,0.00,weatherlink.com 1.10,2013-10-04 01:46:00,
2013-10-03 22:01:00,58.9,56.0,30.12,East,88,0.0,0.0,91,0.00,,,0.00,weatherlink.com 1.10,2013-10-04 02:01:00,
2013-10-03 22:16:00,58.3,56.0,30.12,East,88,0.0,2.0,91,0.00,,,0.00,weatherlink.com 1.10,2013-10-04 02:16:00,
2013-10-03 22:31:00,58.1,56.0,30.12,East,88,0.0,1.0,92,0.00,,,0.00,weatherlink.com 1.10,2013-10-04 02:31:00,
2013-10-03 22:46:00,57.8,56.0,30.12,East,88,0.0,0.0,92,0.00,,,0.00,weatherlink.com 1.10,2013-10-04 02:46:00,
2013-10-03 23:01:00,57.3,55.0,30.13,East,88,0.0,0.0,91,0.00,,,0.00,weatherlink.com 1.10,2013-10-04 03:01:00,
2013-10-03 23:16:00,56.8,54.0,30.13,East,88,0.0,0.0,91,0.00,,,0.00,weatherlink.com 1.10,2013-10-04 03:16:00,
2013-10-03 23:31:00,56.3,54.0,30.13,East,88,0.0,0.0,92,0.00,,,0.00,weatherlink.com 1.10,2013-10-04 03:31:00,
2013-10-03 23:46:00,56.1,54.0,30.13,East,88,0.0,0.0,92,0.00,,,0.00,weatherlink.com 1.10,2013-10-04 03:46:00,